Flag for Portugal Weather past 2 weeks in Ponta Delgada, Azores, Portugal

Now
73 °F

Passing clouds.


Feels Like: 75 °F
Forecast: 67 / 74 °F
Wind: 12 mph from Southeast

Location: Ponta Delgada / Nordela Acores

Current Time: Oct 2, 2014 at 2:58:56 PM

Latest Report: Oct 2, 2014 at 2:00 PM


Visibility: N/A

Pressure: 30.30 "Hg

Humidity: 74%

Dew point: 64 °F

Location of Ponta DelgadaLocation

Historic Weather in Ponta Delgada — Graph

°F

Ponta Delgada temperature yesterday

Maximum temperature yesterday: 73 °F (at 11:00 AM)
Minimum temperature yesterday: 66 °F (at 10:00 PM)
Average temperature yesterday: 70 °F

Past Weeks' High & Low Weather Summary

 TemperatureHumidityPressure
High73 °F (Sep 29, 12:30 PM)100% (Sep 30, 6:30 AM)30.36 "Hg (Sep 30, 6:30 AM)
Low57 °F (Sep 21, 6:00 AM)52% (Sep 17, 3:00 PM)29.98 "Hg (Sep 18, 4:00 PM)
Average67 °F79%30.18 "Hg
* Reported Sep 17 1:00 PM — Oct 2 1:30 PM, Ponta Delgada, Weather by CustomWeather, © 2014

Note: Actual official high and low records may vary slightly from our data, if they occured in-between our weather recording intervals... More about our weather records

Advertising

Ponta Delgada weather history for previous 24 hours

 ConditionsComfort  
Time TempWeatherWind HumidityBarometerVisibility
1:30 PM
Oct 2
72 °FPassing clouds.12 mph78%30.30 "HgN/A
1:00 PM73 °FPassing clouds.12 mph69%30.30 "HgN/A
12:30 PM73 °FPassing clouds.12 mph69%30.33 "HgN/A
12:00 PM72 °FPassing clouds.12 mph73%30.33 "HgN/A
11:30 AM72 °FPassing clouds.10 mph73%30.33 "HgN/A
11:00 AM72 °FPassing clouds.10 mph73%30.33 "HgN/A
10:30 AM72 °FPassing clouds.9 mph73%30.33 "HgN/A
10:00 AM70 °FPassing clouds.7 mph73%30.33 "HgN/A
9:00 AM68 °FPassing clouds.5 mph73%30.30 "HgN/A
8:30 AM66 °FPassing clouds.3 mph78%30.30 "HgN/A
8:00 AM66 °FPassing clouds.6 mph78%30.30 "HgN/A
7:30 AM66 °FPassing clouds.5 mph78%30.30 "HgN/A
7:00 AM66 °FPassing clouds.6 mph83%30.30 "HgN/A
6:30 AM64 °FPassing clouds.5 mph83%30.30 "HgN/A
6:00 AM66 °FPassing clouds.5 mph78%30.27 "HgN/A
5:30 AM66 °FPassing clouds.5 mph78%30.27 "HgN/A
5:00 AM66 °FPassing clouds.6 mph78%30.27 "HgN/A
4:30 AM66 °FPassing clouds.5 mph78%30.27 "HgN/A
4:00 AM64 °FPassing clouds.6 mph83%30.30 "HgN/A
3:30 AM66 °FPassing clouds.6 mph78%30.30 "HgN/A
3:00 AM66 °FPassing clouds.5 mph78%30.30 "HgN/A
2:30 AM66 °FPassing clouds.6 mph78%30.30 "HgN/A
2:00 AM66 °FPassing clouds.6 mph78%30.33 "HgN/A
1:30 AM66 °FPassing clouds.6 mph83%30.33 "HgN/A
1:00 AM66 °FPassing clouds.5 mph78%30.33 "HgN/A
12:30 AM66 °FPassing clouds.6 mph78%30.33 "HgN/A
12:00 AM66 °FPassing clouds.5 mph78%30.33 "HgN/A
11:30 PM
Oct 1
66 °FPassing clouds.5 mph78%30.33 "HgN/A
11:00 PM66 °FPassing clouds.7 mph78%30.33 "HgN/A
10:30 PM66 °FPassing clouds.6 mph78%30.33 "HgN/A
10:00 PM66 °FPassing clouds.5 mph73%30.33 "HgN/A
9:00 PM68 °FPassing clouds.7 mph73%30.33 "HgN/A
8:30 PM68 °FPassing clouds.7 mph73%30.30 "HgN/A
8:00 PM68 °FPassing clouds.10 mph78%30.30 "HgN/A
7:30 PM70 °FPassing clouds.9 mph78%30.30 "HgN/A
7:00 PM70 °FPassing clouds.10 mph78%30.30 "HgN/A
6:30 PM72 °FPassing clouds.12 mph73%30.30 "HgN/A
6:00 PM72 °FPassing clouds.12 mph73%30.27 "HgN/A
5:30 PM72 °FPassing clouds.14 mph73%30.27 "HgN/A
5:00 PM72 °FPassing clouds.15 mph73%30.27 "HgN/A
4:30 PM72 °FPassing clouds.16 mph78%30.27 "HgN/A
4:00 PM73 °FPassing clouds.15 mph74%30.27 "HgN/A
3:30 PM73 °FPassing clouds.15 mph74%30.30 "HgN/A
3:00 PM73 °FPassing clouds.17 mph69%30.30 "HgN/A
2:30 PM73 °FPassing clouds.16 mph74%30.30 "HgN/A
2:00 PM73 °FPassing clouds.18 mph69%30.30 "HgN/A
Weather by CustomWeather, © 2014

See weather overviewHow to use our weather pages